Location: Unspecified
(19.4326°N, 99.1332°W)
Time: 21:06:18
(UTC-06:00)

Hubble Space Telescope - Visible Passes

Search period start: 27 February 2017 00:00
Search period end: 09 March 2017 00:00
Orbit: 538 x 542 km, 28.5° (Epoch: 27 February)

Date Brightness Start Highest point End Pass type
(mag) Time Alt. Az. Time Alt. Az. Time Alt. Az.
27 Feb 2.4 19:32:55 10° WNW 19:36:22 25° N 19:38:56 15° NE visible
28 Feb 2.4 19:23:10 10° WNW 19:26:31 24° N 19:29:36 11° NE visible
28 Feb 3.9 21:04:54 10° NW 21:04:58 10° NW 21:04:58 10° NW visible
01 Mar 2.5 19:13:24 10° NW 19:16:41 23° N 19:19:59 10° NE visible
01 Mar 3.6 20:54:56 10° NW 20:55:39 14° NW 20:55:39 14° NW visible
02 Mar 2.5 19:03:35 10° NW 19:06:51 22° N 19:10:07 10° NE visible
02 Mar 3.1 20:44:56 10° NW 20:46:19 18° NW 20:46:19 18° NW visible
03 Mar 2.6 20:34:54 10° NW 20:37:01 25° NNW 20:37:01 25° NNW visible
04 Mar 1.9 20:24:53 10° WNW 20:27:45 36° NNW 20:27:45 36° NNW visible
05 Mar 1.1 20:14:52 10° WNW 20:18:31 54° N 20:18:31 54° N visible
06 Mar 0.6 20:04:52 10° WNW 20:08:59 74° NNE 20:09:21 68° ENE visible
07 Mar 0.7 19:54:54 10° WNW 19:59:01 84° SSW 20:00:15 44° ESE visible
08 Mar 1.0 19:44:58 10° WNW 19:49:02 62° SSW 19:51:13 26° SE visible
